Weather History for Statesville, NC

Change the Weather History Date:

Monday, October 14, 2013

  Actual Average (KHKY) Record (KHKY)
Temperature  
Mean Temperature 64 °F -  
Max Temperature 70 °F 74 °F 88 °F (1985)
Min Temperature 57 °F 47 °F 30 °F (2006)
Degree Days  
Heating Degree Days 2    
Growing Degree Days 14 (Base 50)    
Moisture  
Dew Point 58 °F    
Average Humidity 87    
Maximum Humidity 98    
Minimum Humidity 68    
Precipitation  
Precipitation 0.08 in - - ()
Sea Level Pressure  
Sea Level Pressure 30.22 in    
Wind  
Wind Speed 8 mph (NE)    
Max Wind Speed 13 mph    
Max Gust Speed 16 mph    
Visibility 9 miles    
Events Rain    
Averages and records for this station are not official NWS values.
T = Trace of Precipitation, MM = Missing Value Source: NWS Daily Summary

Daily Weather History Graph

Daily Weather History Graph

Search for Another Location

Airport:

Trip Planner

Search our weather history database for the weather conditions in past years. The results will help you decide how hot, cold, wet, or windy it might be!

Date:

Astronomy

Oct. 14, 2013 Rise Set
Actual Time 7:29 AM EDT 6:49 PM EDT
Civil Twilight 7:04 AM EDT 7:14 PM EDT
Nautical Twilight 6:34 AM EDT 7:44 PM EDT
Astronomical Twilight 6:04 AM EDT 8:14 PM EDT
Moon 4:10 PM EDT (10/14) 2:53 AM EDT (10/14)
Length of Visible Light 12h 10m
Length of Day
11h 19m
Waxing Gibbous, 79% of the Moon is Illuminated
Oct 14
Waxing Gibbous
Oct 18
Full
Oct 26
Last Quarter
Nov 3
New
Nov 10
First Quarter

Hourly Weather History & Observations

Time (EDT) Temp. Dew Point Humidity Pressure Visibility Wind Dir Wind Speed Gust Speed Precip Events Conditions
12:15 AM 62.1 °F 58.6 °F 89% 30.24 in 10.0 mi NE 9.2 mph - N/A   Overcast
12:35 AM 62.2 °F 58.5 °F 87% 30.23 in 10.0 mi NE 9.2 mph 16.1 mph N/A   Overcast
12:55 AM 62.1 °F 58.3 °F 87% 30.23 in 10.0 mi NE 9.2 mph 16.1 mph N/A   Overcast
1:15 AM 61.9 °F 58.5 °F 89% 30.23 in 10.0 mi NE 6.9 mph - N/A   Overcast
1:35 AM 61.7 °F 58.3 °F 89% 30.23 in 10.0 mi NE 6.9 mph - N/A   Overcast
1:55 AM 61.7 °F 58.1 °F 88% 30.22 in 10.0 mi NE 6.9 mph - N/A   Overcast
2:15 AM 61.3 °F 58.1 °F 89% 30.22 in 10.0 mi NE 10.4 mph 16.1 mph N/A   Overcast
2:35 AM 61.3 °F 58.3 °F 90% 30.22 in 10.0 mi NE 5.8 mph - N/A   Overcast
2:55 AM 61.2 °F 58.3 °F 90% 30.22 in 10.0 mi NNE 10.4 mph - N/A   Overcast
3:15 AM 61.2 °F 57.7 °F 88% 30.23 in 10.0 mi NNE 8.1 mph - N/A   Overcast
3:35 AM 61.2 °F 57.6 °F 88% 30.22 in 10.0 mi NNE 6.9 mph - N/A   Overcast
3:55 AM 61.0 °F 58.1 °F 90% 30.22 in 10.0 mi NNE 9.2 mph - N/A   Overcast
4:15 AM 59.9 °F 58.3 °F 94% 30.22 in 5.0 mi NE 6.9 mph - N/A Rain Heavy Rain
4:35 AM 59.2 °F 58.5 °F 97% 30.23 in 5.0 mi NE 6.9 mph - 0.04 in Rain Rain
4:55 AM 59.2 °F 58.5 °F 97% 30.23 in 5.0 mi NE 5.8 mph - 0.05 in   Drizzle
5:15 AM 59.2 °F 58.6 °F 98% 30.22 in 5.0 mi NNE 6.9 mph - 0.03 in Rain Heavy Rain
5:35 AM 59.2 °F 58.1 °F 96% 30.22 in 10.0 mi NNE 8.1 mph - 0.03 in   Overcast
5:55 AM 59.0 °F 58.1 °F 97% 30.23 in 10.0 mi NNE 5.8 mph - 0.03 in   Overcast
6:15 AM 59.0 °F 58.1 °F 97% 30.23 in 5.0 mi NNE 6.9 mph - N/A   Drizzle
6:35 AM 58.8 °F 58.1 °F 97% 30.23 in 5.0 mi NNE 6.9 mph - N/A   Drizzle
6:55 AM 59.0 °F 58.1 °F 97% 30.23 in 10.0 mi NNE 9.2 mph - N/A   Overcast
7:15 AM 59.0 °F 58.1 °F 97% 30.24 in 10.0 mi NE 9.2 mph - N/A   Overcast
7:35 AM 59.0 °F 57.7 °F 96% 30.24 in 10.0 mi NNE 6.9 mph - N/A   Overcast
7:55 AM 59.0 °F 57.7 °F 96% 30.24 in 10.0 mi NNE 6.9 mph - N/A   Overcast
8:15 AM 59.0 °F 57.7 °F 96% 30.25 in 10.0 mi NNE 5.8 mph - N/A   Overcast
8:35 AM 59.0 °F 57.7 °F 96% 30.25 in 10.0 mi NE 8.1 mph - N/A   Overcast
8:55 AM 59.2 °F 58.1 °F 96% 30.26 in 7.0 mi NE 5.8 mph - N/A   Overcast
9:15 AM 59.4 °F 58.1 °F 96% 30.26 in 10.0 mi NE 4.6 mph - N/A   Overcast
9:35 AM 59.9 °F 57.9 °F 93% 30.26 in 10.0 mi NE 6.9 mph - N/A   Overcast
9:55 AM 60.3 °F 57.9 °F 92% 30.26 in 10.0 mi NE 10.4 mph - N/A   Overcast
10:15 AM 60.8 °F 58.1 °F 91% 30.26 in 10.0 mi NE 10.4 mph - N/A   Overcast
10:35 AM 61.0 °F 58.1 °F 90% 30.27 in 10.0 mi NE 8.1 mph - N/A   Overcast
10:55 AM 61.0 °F 58.1 °F 90% 30.26 in 10.0 mi NNE 8.1 mph - N/A   Overcast
11:15 AM 61.3 °F 58.3 °F 90% 30.26 in 10.0 mi NNE 6.9 mph - N/A   Overcast
11:35 AM 62.1 °F 58.6 °F 89% 30.26 in 10.0 mi North 6.9 mph - N/A   Overcast
11:55 AM 62.8 °F 58.5 °F 86% 30.26 in 10.0 mi NNE 9.2 mph - N/A   Overcast
12:15 PM 63.7 °F 58.8 °F 84% 30.26 in 10.0 mi NE 9.2 mph - N/A   Overcast
12:35 PM 64.2 °F 59.0 °F 83% 30.25 in 10.0 mi NE 9.2 mph - N/A   Overcast
12:55 PM 66.6 °F 59.5 °F 78% 30.24 in 10.0 mi NE 10.4 mph 16.1 mph N/A   Overcast
1:15 PM 66.4 °F 59.5 °F 79% 30.23 in 10.0 mi NNE 9.2 mph - N/A   Overcast
1:35 PM 67.8 °F 60.1 °F 76% 30.22 in 10.0 mi NE 12.7 mph - N/A   Overcast
1:55 PM 67.8 °F 59.7 °F 75% 30.22 in 10.0 mi NE 8.1 mph - N/A   Overcast
2:15 PM 68.5 °F 59.7 °F 73% 30.21 in 10.0 mi NE 9.2 mph - N/A   Overcast
2:35 PM 70.2 °F 60.4 °F 71% 30.20 in 10.0 mi NNE 6.9 mph - N/A   Overcast
2:55 PM 69.4 °F 59.5 °F 71% 30.20 in 10.0 mi North 11.5 mph - N/A   Overcast
3:15 PM 68.0 °F 58.6 °F 72% 30.19 in 10.0 mi NNE 10.4 mph - N/A   Overcast
3:35 PM 67.6 °F 59.0 °F 74% 30.19 in 10.0 mi NNE 5.8 mph - N/A   Overcast
3:55 PM 67.1 °F 59.0 °F 75% 30.18 in 10.0 mi NNE 9.2 mph - N/A   Overcast
4:15 PM 67.3 °F 58.3 °F 73% 30.18 in 10.0 mi ENE 8.1 mph - N/A   Overcast
4:35 PM 69.4 °F 58.6 °F 68% 30.18 in 10.0 mi ENE 8.1 mph - N/A   Scattered Clouds
4:55 PM 68.0 °F 58.3 °F 71% 30.18 in 10.0 mi ENE 8.1 mph - N/A   Scattered Clouds
5:15 PM 68.5 °F 58.3 °F 70% 30.18 in 10.0 mi East 9.2 mph - N/A   Mostly Cloudy
5:35 PM 68.0 °F 57.7 °F 70% 30.18 in 10.0 mi East 8.1 mph - N/A   Mostly Cloudy
5:55 PM 67.3 °F 57.4 °F 70% 30.18 in 7.0 mi ENE 6.9 mph - N/A   Scattered Clouds
6:15 PM 66.0 °F 57.4 °F 74% 30.18 in 7.0 mi East 4.6 mph - N/A   Scattered Clouds
6:35 PM 64.8 °F 57.4 °F 77% 30.19 in 5.0 mi ENE 4.6 mph - N/A   Haze
6:55 PM 63.9 °F 57.4 °F 79% 30.20 in 10.0 mi ENE 4.6 mph - N/A   Overcast
7:15 PM 63.0 °F 57.4 °F 82% 30.20 in 10.0 mi ENE 4.6 mph - N/A   Scattered Clouds
7:35 PM 61.5 °F 57.2 °F 86% 30.20 in 10.0 mi East 3.5 mph - N/A   Clear
7:55 PM 60.6 °F 56.8 °F 87% 30.21 in 10.0 mi East 3.5 mph - N/A   Clear
8:15 PM 60.6 °F 57.0 °F 88% 30.21 in 10.0 mi ENE 4.6 mph - N/A   Clear
8:35 PM 59.5 °F 56.5 °F 90% 30.21 in 10.0 mi East 3.5 mph - N/A   Clear
8:55 PM 58.8 °F 56.3 °F 91% 30.22 in 10.0 mi ENE 4.6 mph - N/A   Clear
9:15 PM 58.6 °F 56.5 °F 93% 30.22 in 10.0 mi East 3.5 mph - N/A   Mostly Cloudy
9:35 PM 57.4 °F 56.1 °F 96% 30.22 in 10.0 mi ENE 4.6 mph - N/A   Scattered Clouds
9:55 PM 58.1 °F 56.5 °F 94% 30.23 in 10.0 mi ENE 5.8 mph - N/A   Clear
10:15 PM 58.1 °F 56.3 °F 94% 30.24 in 10.0 mi ENE 5.8 mph - N/A   Clear
10:35 PM 57.7 °F 55.9 °F 94% 30.25 in 10.0 mi NE 4.6 mph - N/A   Clear
10:55 PM 57.4 °F 55.8 °F 94% 30.24 in 10.0 mi NE 5.8 mph - N/A   Scattered Clouds
11:15 PM 57.0 °F 55.2 °F 94% 30.24 in 10.0 mi NE 5.8 mph - N/A   Clear
11:35 PM 57.2 °F 54.9 °F 92% 30.24 in 10.0 mi ENE 9.2 mph - N/A   Mostly Cloudy
11:55 PM 57.2 °F 54.7 °F 91% 30.23 in 10.0 mi NE 5.8 mph - N/A   Mostly Cloudy